Index of /20260429/WXO-DD/model_rdps/10km/12/006
Name Last modified Size Description
Parent Directory -
20260429T12Z_MSC_RDPS_AbsoluteVorticity_IsbL-0250_RLatLon0.09_PT006H.grib2 2026-04-29 14:44 633K
20260429T12Z_MSC_RDPS_AbsoluteVorticity_IsbL-0500_RLatLon0.09_PT006H.grib2 2026-04-29 14:44 571K
20260429T12Z_MSC_RDPS_AbsoluteVorticity_IsbL-0700_RLatLon0.09_PT006H.grib2 2026-04-29 14:44 762K
20260429T12Z_MSC_RDPS_AbsoluteVorticity_IsbL-0850_RLatLon0.09_PT006H.grib2 2026-04-29 14:44 777K
20260429T12Z_MSC_RDPS_AirTemp_AGL-120m_RLatLon0.09_PT006H.grib2 2026-04-29 14:44 393K
20260429T12Z_MSC_RDPS_AirTemp_AGL-2m_RLatLon0.09_PT006H.grib2 2026-04-29 14:44 626K
20260429T12Z_MSC_RDPS_AirTemp_AGL-40m_RLatLon0.09_PT006H.grib2 2026-04-29 14:44 401K
20260429T12Z_MSC_RDPS_AirTemp_AGL-80m_RLatLon0.09_PT006H.grib2 2026-04-29 14:44 397K
20260429T12Z_MSC_RDPS_AirTemp_IsbL-0001_RLatLon0.09_PT006H.grib2 2026-04-29 14:44 282K
20260429T12Z_MSC_RDPS_AirTemp_IsbL-0005_RLatLon0.09_PT006H.grib2 2026-04-29 14:44 282K
20260429T12Z_MSC_RDPS_AirTemp_IsbL-0010_RLatLon0.09_PT006H.grib2 2026-04-29 14:44 290K
20260429T12Z_MSC_RDPS_AirTemp_IsbL-0020_RLatLon0.09_PT006H.grib2 2026-04-29 14:44 305K
20260429T12Z_MSC_RDPS_AirTemp_IsbL-0030_RLatLon0.09_PT006H.grib2 2026-04-29 14:44 325K
20260429T12Z_MSC_RDPS_AirTemp_IsbL-0050_RLatLon0.09_PT006H.grib2 2026-04-29 14:44 303K
20260429T12Z_MSC_RDPS_AirTemp_IsbL-0100_RLatLon0.09_PT006H.grib2 2026-04-29 14:44 421K
20260429T12Z_MSC_RDPS_AirTemp_IsbL-0150_RLatLon0.09_PT006H.grib2 2026-04-29 14:44 423K
20260429T12Z_MSC_RDPS_AirTemp_IsbL-0175_RLatLon0.09_PT006H.grib2 2026-04-29 14:44 414K
20260429T12Z_MSC_RDPS_AirTemp_IsbL-0200_RLatLon0.09_PT006H.grib2 2026-04-29 14:44 419K
20260429T12Z_MSC_RDPS_AirTemp_IsbL-0225_RLatLon0.09_PT006H.grib2 2026-04-29 14:44 422K
20260429T12Z_MSC_RDPS_AirTemp_IsbL-0250_RLatLon0.09_PT006H.grib2 2026-04-29 14:44 434K
20260429T12Z_MSC_RDPS_AirTemp_IsbL-0275_RLatLon0.09_PT006H.grib2 2026-04-29 14:44 413K
20260429T12Z_MSC_RDPS_AirTemp_IsbL-0300_RLatLon0.09_PT006H.grib2 2026-04-29 14:44 419K
20260429T12Z_MSC_RDPS_AirTemp_IsbL-0350_RLatLon0.09_PT006H.grib2 2026-04-29 14:44 431K
20260429T12Z_MSC_RDPS_AirTemp_IsbL-0400_RLatLon0.09_PT006H.grib2 2026-04-29 14:44 431K
20260429T12Z_MSC_RDPS_AirTemp_IsbL-0450_RLatLon0.09_PT006H.grib2 2026-04-29 14:44 436K
20260429T12Z_MSC_RDPS_AirTemp_IsbL-0500_RLatLon0.09_PT006H.grib2 2026-04-29 14:44 412K
20260429T12Z_MSC_RDPS_AirTemp_IsbL-0550_RLatLon0.09_PT006H.grib2 2026-04-29 14:44 429K
20260429T12Z_MSC_RDPS_AirTemp_IsbL-0600_RLatLon0.09_PT006H.grib2 2026-04-29 14:44 448K
20260429T12Z_MSC_RDPS_AirTemp_IsbL-0650_RLatLon0.09_PT006H.grib2 2026-04-29 14:44 466K
20260429T12Z_MSC_RDPS_AirTemp_IsbL-0700_RLatLon0.09_PT006H.grib2 2026-04-29 14:44 386K
20260429T12Z_MSC_RDPS_AirTemp_IsbL-0750_RLatLon0.09_PT006H.grib2 2026-04-29 14:44 419K
20260429T12Z_MSC_RDPS_AirTemp_IsbL-0800_RLatLon0.09_PT006H.grib2 2026-04-29 14:44 460K
20260429T12Z_MSC_RDPS_AirTemp_IsbL-0850_RLatLon0.09_PT006H.grib2 2026-04-29 14:44 506K
20260429T12Z_MSC_RDPS_AirTemp_IsbL-0875_RLatLon0.09_PT006H.grib2 2026-04-29 14:44 523K
20260429T12Z_MSC_RDPS_AirTemp_IsbL-0900_RLatLon0.09_PT006H.grib2 2026-04-29 14:44 531K
20260429T12Z_MSC_RDPS_AirTemp_IsbL-0925_RLatLon0.09_PT006H.grib2 2026-04-29 14:44 528K
20260429T12Z_MSC_RDPS_AirTemp_IsbL-0950_RLatLon0.09_PT006H.grib2 2026-04-29 14:44 532K
20260429T12Z_MSC_RDPS_AirTemp_IsbL-0970_RLatLon0.09_PT006H.grib2 2026-04-29 14:44 525K
20260429T12Z_MSC_RDPS_AirTemp_IsbL-0985_RLatLon0.09_PT006H.grib2 2026-04-29 14:44 523K
20260429T12Z_MSC_RDPS_AirTemp_IsbL-1000_RLatLon0.09_PT006H.grib2 2026-04-29 14:44 509K
20260429T12Z_MSC_RDPS_AirTemp_IsbL-1015_RLatLon0.09_PT006H.grib2 2026-04-29 14:44 507K
20260429T12Z_MSC_RDPS_Albedo_Sfc_RLatLon0.09_PT006H.grib2 2026-04-29 14:44 159K
20260429T12Z_MSC_RDPS_CAPE_Sfc_RLatLon0.09_PT006H.grib2 2026-04-29 14:44 1.7M
20260429T12Z_MSC_RDPS_CIN_Sfc_RLatLon0.09_PT006H.grib2 2026-04-29 14:44 1.1M
20260429T12Z_MSC_RDPS_CloudWater_EAtm_RLatLon0.09_PT006H.grib2 2026-04-29 14:44 218K
20260429T12Z_MSC_RDPS_ConvectivePrecip-Accum_Sfc_RLatLon0.09_PT006H.grib2 2026-04-29 14:44 503K
20260429T12Z_MSC_RDPS_DewPointDepression_AGL-2m_RLatLon0.09_PT006H.grib2 2026-04-29 14:44 419K
20260429T12Z_MSC_RDPS_DewPointDepression_IsbL-0001_RLatLon0.09_PT006H.grib2 2026-04-29 14:44 193
20260429T12Z_MSC_RDPS_DewPointDepression_IsbL-0005_RLatLon0.09_PT006H.grib2 2026-04-29 14:44 193
20260429T12Z_MSC_RDPS_DewPointDepression_IsbL-0010_RLatLon0.09_PT006H.grib2 2026-04-29 14:44 193
20260429T12Z_MSC_RDPS_DewPointDepression_IsbL-0020_RLatLon0.09_PT006H.grib2 2026-04-29 14:44 193
20260429T12Z_MSC_RDPS_DewPointDepression_IsbL-0030_RLatLon0.09_PT006H.grib2 2026-04-29 14:44 193
20260429T12Z_MSC_RDPS_DewPointDepression_IsbL-0050_RLatLon0.09_PT006H.grib2 2026-04-29 14:44 82K
20260429T12Z_MSC_RDPS_DewPointDepression_IsbL-0100_RLatLon0.09_PT006H.grib2 2026-04-29 14:44 131K
20260429T12Z_MSC_RDPS_DewPointDepression_IsbL-0150_RLatLon0.09_PT006H.grib2 2026-04-29 14:44 156K
20260429T12Z_MSC_RDPS_DewPointDepression_IsbL-0175_RLatLon0.09_PT006H.grib2 2026-04-29 14:44 185K
20260429T12Z_MSC_RDPS_DewPointDepression_IsbL-0200_RLatLon0.09_PT006H.grib2 2026-04-29 14:44 225K
20260429T12Z_MSC_RDPS_DewPointDepression_IsbL-0225_RLatLon0.09_PT006H.grib2 2026-04-29 14:44 273K
20260429T12Z_MSC_RDPS_DewPointDepression_IsbL-0250_RLatLon0.09_PT006H.grib2 2026-04-29 14:44 310K
20260429T12Z_MSC_RDPS_DewPointDepression_IsbL-0275_RLatLon0.09_PT006H.grib2 2026-04-29 14:44 316K
20260429T12Z_MSC_RDPS_DewPointDepression_IsbL-0300_RLatLon0.09_PT006H.grib2 2026-04-29 14:44 335K
20260429T12Z_MSC_RDPS_DewPointDepression_IsbL-0350_RLatLon0.09_PT006H.grib2 2026-04-29 14:44 339K
20260429T12Z_MSC_RDPS_DewPointDepression_IsbL-0400_RLatLon0.09_PT006H.grib2 2026-04-29 14:44 344K
20260429T12Z_MSC_RDPS_DewPointDepression_IsbL-0450_RLatLon0.09_PT006H.grib2 2026-04-29 14:44 349K
20260429T12Z_MSC_RDPS_DewPointDepression_IsbL-0500_RLatLon0.09_PT006H.grib2 2026-04-29 14:44 354K
20260429T12Z_MSC_RDPS_DewPointDepression_IsbL-0550_RLatLon0.09_PT006H.grib2 2026-04-29 14:44 364K
20260429T12Z_MSC_RDPS_DewPointDepression_IsbL-0600_RLatLon0.09_PT006H.grib2 2026-04-29 14:44 374K
20260429T12Z_MSC_RDPS_DewPointDepression_IsbL-0650_RLatLon0.09_PT006H.grib2 2026-04-29 14:44 381K
20260429T12Z_MSC_RDPS_DewPointDepression_IsbL-0700_RLatLon0.09_PT006H.grib2 2026-04-29 14:44 394K
20260429T12Z_MSC_RDPS_DewPointDepression_IsbL-0750_RLatLon0.09_PT006H.grib2 2026-04-29 14:44 418K
20260429T12Z_MSC_RDPS_DewPointDepression_IsbL-0800_RLatLon0.09_PT006H.grib2 2026-04-29 14:44 447K
20260429T12Z_MSC_RDPS_DewPointDepression_IsbL-0850_RLatLon0.09_PT006H.grib2 2026-04-29 14:44 471K
20260429T12Z_MSC_RDPS_DewPointDepression_IsbL-0875_RLatLon0.09_PT006H.grib2 2026-04-29 14:44 469K
20260429T12Z_MSC_RDPS_DewPointDepression_IsbL-0900_RLatLon0.09_PT006H.grib2 2026-04-29 14:44 462K
20260429T12Z_MSC_RDPS_DewPointDepression_IsbL-0925_RLatLon0.09_PT006H.grib2 2026-04-29 14:44 452K
20260429T12Z_MSC_RDPS_DewPointDepression_IsbL-0950_RLatLon0.09_PT006H.grib2 2026-04-29 14:44 450K
20260429T12Z_MSC_RDPS_DewPointDepression_IsbL-0970_RLatLon0.09_PT006H.grib2 2026-04-29 14:44 441K
20260429T12Z_MSC_RDPS_DewPointDepression_IsbL-0985_RLatLon0.09_PT006H.grib2 2026-04-29 14:44 434K
20260429T12Z_MSC_RDPS_DewPointDepression_IsbL-1000_RLatLon0.09_PT006H.grib2 2026-04-29 14:44 429K
20260429T12Z_MSC_RDPS_DewPointDepression_IsbL-1015_RLatLon0.09_PT006H.grib2 2026-04-29 14:44 422K
20260429T12Z_MSC_RDPS_DewPoint_AGL-2m_RLatLon0.09_PT006H.grib2 2026-04-29 14:44 402K
20260429T12Z_MSC_RDPS_DownwardLongwaveRadiationFlux-Accum_Sfc_RLatLon0.09_PT006H.grib2 2026-04-29 14:44 489K
20260429T12Z_MSC_RDPS_DownwardShortwaveRadiationFlux-Accum_NTAtm_RLatLon0.09_PT006H.grib2 2026-04-29 14:44 109K
20260429T12Z_MSC_RDPS_DownwardShortwaveRadiationFlux-Accum_Sfc_RLatLon0.09_PT006H.grib2 2026-04-29 14:44 560K
20260429T12Z_MSC_RDPS_FreezingRain-Accum1h_Sfc_RLatLon0.09_PT006H.grib2 2026-04-29 14:44 8.4K
20260429T12Z_MSC_RDPS_FreezingRain-Accum3h_Sfc_RLatLon0.09_PT006H.grib2 2026-04-29 14:44 16K
20260429T12Z_MSC_RDPS_FreezingRain-Accum6h_Sfc_RLatLon0.09_PT006H.grib2 2026-04-29 14:44 36K
20260429T12Z_MSC_RDPS_FreezingRain-Accum_Sfc_RLatLon0.09_PT006H.grib2 2026-04-29 14:44 44K
20260429T12Z_MSC_RDPS_GeopotentialHeight_IsbL-0001_RLatLon0.09_PT006H.grib2 2026-04-29 14:44 245K
20260429T12Z_MSC_RDPS_GeopotentialHeight_IsbL-0005_RLatLon0.09_PT006H.grib2 2026-04-29 14:44 337K
20260429T12Z_MSC_RDPS_GeopotentialHeight_IsbL-0010_RLatLon0.09_PT006H.grib2 2026-04-29 14:44 338K
20260429T12Z_MSC_RDPS_GeopotentialHeight_IsbL-0020_RLatLon0.09_PT006H.grib2 2026-04-29 14:44 304K
20260429T12Z_MSC_RDPS_GeopotentialHeight_IsbL-0030_RLatLon0.09_PT006H.grib2 2026-04-29 14:44 306K
20260429T12Z_MSC_RDPS_GeopotentialHeight_IsbL-0050_RLatLon0.09_PT006H.grib2 2026-04-29 14:44 339K
20260429T12Z_MSC_RDPS_GeopotentialHeight_IsbL-0100_RLatLon0.09_PT006H.grib2 2026-04-29 14:44 285K
20260429T12Z_MSC_RDPS_GeopotentialHeight_IsbL-0150_RLatLon0.09_PT006H.grib2 2026-04-29 14:44 231K
20260429T12Z_MSC_RDPS_GeopotentialHeight_IsbL-0175_RLatLon0.09_PT006H.grib2 2026-04-29 14:44 266K
20260429T12Z_MSC_RDPS_GeopotentialHeight_IsbL-0200_RLatLon0.09_PT006H.grib2 2026-04-29 14:44 268K
20260429T12Z_MSC_RDPS_GeopotentialHeight_IsbL-0225_RLatLon0.09_PT006H.grib2 2026-04-29 14:44 269K
20260429T12Z_MSC_RDPS_GeopotentialHeight_IsbL-0250_RLatLon0.09_PT006H.grib2 2026-04-29 14:44 269K
20260429T12Z_MSC_RDPS_GeopotentialHeight_IsbL-0275_RLatLon0.09_PT006H.grib2 2026-04-29 14:44 268K
20260429T12Z_MSC_RDPS_GeopotentialHeight_IsbL-0300_RLatLon0.09_PT006H.grib2 2026-04-29 14:44 268K
20260429T12Z_MSC_RDPS_GeopotentialHeight_IsbL-0350_RLatLon0.09_PT006H.grib2 2026-04-29 14:44 233K
20260429T12Z_MSC_RDPS_GeopotentialHeight_IsbL-0400_RLatLon0.09_PT006H.grib2 2026-04-29 14:44 230K
20260429T12Z_MSC_RDPS_GeopotentialHeight_IsbL-0450_RLatLon0.09_PT006H.grib2 2026-04-29 14:44 298K
20260429T12Z_MSC_RDPS_GeopotentialHeight_IsbL-0500_RLatLon0.09_PT006H.grib2 2026-04-29 14:44 293K
20260429T12Z_MSC_RDPS_GeopotentialHeight_IsbL-0550_RLatLon0.09_PT006H.grib2 2026-04-29 14:44 290K
20260429T12Z_MSC_RDPS_GeopotentialHeight_IsbL-0600_RLatLon0.09_PT006H.grib2 2026-04-29 14:44 287K
20260429T12Z_MSC_RDPS_GeopotentialHeight_IsbL-0650_RLatLon0.09_PT006H.grib2 2026-04-29 14:44 258K
20260429T12Z_MSC_RDPS_GeopotentialHeight_IsbL-0700_RLatLon0.09_PT006H.grib2 2026-04-29 14:44 339K
20260429T12Z_MSC_RDPS_GeopotentialHeight_IsbL-0750_RLatLon0.09_PT006H.grib2 2026-04-29 14:44 342K
20260429T12Z_MSC_RDPS_GeopotentialHeight_IsbL-0800_RLatLon0.09_PT006H.grib2 2026-04-29 14:44 350K
20260429T12Z_MSC_RDPS_GeopotentialHeight_IsbL-0850_RLatLon0.09_PT006H.grib2 2026-04-29 14:44 359K
20260429T12Z_MSC_RDPS_GeopotentialHeight_IsbL-0875_RLatLon0.09_PT006H.grib2 2026-04-29 14:44 363K
20260429T12Z_MSC_RDPS_GeopotentialHeight_IsbL-0900_RLatLon0.09_PT006H.grib2 2026-04-29 14:44 366K
20260429T12Z_MSC_RDPS_GeopotentialHeight_IsbL-0925_RLatLon0.09_PT006H.grib2 2026-04-29 14:44 367K
20260429T12Z_MSC_RDPS_GeopotentialHeight_IsbL-0950_RLatLon0.09_PT006H.grib2 2026-04-29 14:44 372K
20260429T12Z_MSC_RDPS_GeopotentialHeight_IsbL-0970_RLatLon0.09_PT006H.grib2 2026-04-29 14:44 381K
20260429T12Z_MSC_RDPS_GeopotentialHeight_IsbL-0985_RLatLon0.09_PT006H.grib2 2026-04-29 14:44 391K
20260429T12Z_MSC_RDPS_GeopotentialHeight_IsbL-1000_RLatLon0.09_PT006H.grib2 2026-04-29 14:44 403K
20260429T12Z_MSC_RDPS_GeopotentialHeight_IsbL-1015_RLatLon0.09_PT006H.grib2 2026-04-29 14:44 417K
20260429T12Z_MSC_RDPS_Humidex_Sfc_RLatLon0.09_PT006H.grib2 2026-04-29 14:44 2.4M
20260429T12Z_MSC_RDPS_IcePellets-Accum1h_Sfc_RLatLon0.09_PT006H.grib2 2026-04-29 14:44 2.4K
20260429T12Z_MSC_RDPS_IcePellets-Accum3h_Sfc_RLatLon0.09_PT006H.grib2 2026-04-29 14:44 4.0K
20260429T12Z_MSC_RDPS_IcePellets-Accum6h_Sfc_RLatLon0.09_PT006H.grib2 2026-04-29 14:44 6.0K
20260429T12Z_MSC_RDPS_IcePellets-Accum_Sfc_RLatLon0.09_PT006H.grib2 2026-04-29 14:44 6.4K
20260429T12Z_MSC_RDPS_KIndex_Sfc_RLatLon0.09_PT006H.grib2 2026-04-29 14:44 2.4M
20260429T12Z_MSC_RDPS_LatentHeatNetFlux_Sfc_RLatLon0.09_PT006H.grib2 2026-04-29 14:44 306K
20260429T12Z_MSC_RDPS_LiftedIndex-MU-VT_IsbL-0500_RLatLon0.09_PT006H.grib2 2026-04-29 14:44 2.4M
20260429T12Z_MSC_RDPS_NetLongwaveRadiationFlux-Accum_Sfc_RLatLon0.09_PT006H.grib2 2026-04-29 14:44 548K
20260429T12Z_MSC_RDPS_NetShortwaveRadiationFlux-Accum_Sfc_RLatLon0.09_PT006H.grib2 2026-04-29 14:44 557K
20260429T12Z_MSC_RDPS_PlanetaryBoundaryLayerHeight_Sfc_RLatLon0.09_PT006H.grib2 2026-04-29 14:44 1.0M
20260429T12Z_MSC_RDPS_Precip-Accum1h_Sfc_RLatLon0.09_PT006H.grib2 2026-04-29 14:44 1.1M
20260429T12Z_MSC_RDPS_Precip-Accum3h_Sfc_RLatLon0.09_PT006H.grib2 2026-04-29 14:44 1.3M
20260429T12Z_MSC_RDPS_Precip-Accum6h_Sfc_RLatLon0.09_PT006H.grib2 2026-04-29 14:44 1.3M
20260429T12Z_MSC_RDPS_Precip-Accum_Sfc_RLatLon0.09_PT006H.grib2 2026-04-29 14:44 1.3M
20260429T12Z_MSC_RDPS_PrecipRate_Sfc_RLatLon0.09_PT006H.grib2 2026-04-29 14:44 170K
20260429T12Z_MSC_RDPS_PrecipType-Instant_Sfc_RLatLon0.09_PT006H.grib2 2026-04-29 14:44 555K
20260429T12Z_MSC_RDPS_Pressure-Trend3h_Sfc_RLatLon0.09_PT006H.grib2 2026-04-29 14:44 1.2M
20260429T12Z_MSC_RDPS_Pressure_MSL_RLatLon0.09_PT006H.grib2 2026-04-29 14:44 332K
20260429T12Z_MSC_RDPS_Pressure_PVU-1.5_RLatLon0.09_PT006H.grib2 2026-04-29 14:44 2.5M
20260429T12Z_MSC_RDPS_Pressure_PVU-1_RLatLon0.09_PT006H.grib2 2026-04-29 14:44 2.4M
20260429T12Z_MSC_RDPS_Pressure_PVU-2_RLatLon0.09_PT006H.grib2 2026-04-29 14:44 2.4M
20260429T12Z_MSC_RDPS_Pressure_Sfc_RLatLon0.09_PT006H.grib2 2026-04-29 14:44 501K
20260429T12Z_MSC_RDPS_RadiativeTemp_Sfc_RLatLon0.09_PT006H.grib2 2026-04-29 14:44 326K
20260429T12Z_MSC_RDPS_Rain-Accum1h_Sfc_RLatLon0.09_PT006H.grib2 2026-04-29 14:44 570K
20260429T12Z_MSC_RDPS_Rain-Accum3h_Sfc_RLatLon0.09_PT006H.grib2 2026-04-29 14:44 644K
20260429T12Z_MSC_RDPS_Rain-Accum6h_Sfc_RLatLon0.09_PT006H.grib2 2026-04-29 14:44 850K
20260429T12Z_MSC_RDPS_Rain-Accum_Sfc_RLatLon0.09_PT006H.grib2 2026-04-29 14:44 948K
20260429T12Z_MSC_RDPS_RelativeHumidity_AGL-2m_RLatLon0.09_PT006H.grib2 2026-04-29 14:44 1.0M
20260429T12Z_MSC_RDPS_RelativeHumidity_IsbL-0010_RLatLon0.09_PT006H.grib2 2026-04-29 14:44 634K
20260429T12Z_MSC_RDPS_RelativeHumidity_IsbL-0020_RLatLon0.09_PT006H.grib2 2026-04-29 14:44 645K
20260429T12Z_MSC_RDPS_RelativeHumidity_IsbL-0030_RLatLon0.09_PT006H.grib2 2026-04-29 14:44 600K
20260429T12Z_MSC_RDPS_RelativeHumidity_IsbL-0050_RLatLon0.09_PT006H.grib2 2026-04-29 14:44 365K
20260429T12Z_MSC_RDPS_RelativeHumidity_IsbL-0100_RLatLon0.09_PT006H.grib2 2026-04-29 14:44 282K
20260429T12Z_MSC_RDPS_RelativeHumidity_IsbL-0150_RLatLon0.09_PT006H.grib2 2026-04-29 14:44 417K
20260429T12Z_MSC_RDPS_RelativeHumidity_IsbL-0175_RLatLon0.09_PT006H.grib2 2026-04-29 14:44 488K
20260429T12Z_MSC_RDPS_RelativeHumidity_IsbL-0200_RLatLon0.09_PT006H.grib2 2026-04-29 14:44 560K
20260429T12Z_MSC_RDPS_RelativeHumidity_IsbL-0225_RLatLon0.09_PT006H.grib2 2026-04-29 14:44 628K
20260429T12Z_MSC_RDPS_RelativeHumidity_IsbL-0250_RLatLon0.09_PT006H.grib2 2026-04-29 14:44 700K
20260429T12Z_MSC_RDPS_RelativeHumidity_IsbL-0275_RLatLon0.09_PT006H.grib2 2026-04-29 14:44 732K
20260429T12Z_MSC_RDPS_RelativeHumidity_IsbL-0300_RLatLon0.09_PT006H.grib2 2026-04-29 14:44 777K
20260429T12Z_MSC_RDPS_RelativeHumidity_IsbL-0350_RLatLon0.09_PT006H.grib2 2026-04-29 14:44 794K
20260429T12Z_MSC_RDPS_RelativeHumidity_IsbL-0400_RLatLon0.09_PT006H.grib2 2026-04-29 14:44 801K
20260429T12Z_MSC_RDPS_RelativeHumidity_IsbL-0450_RLatLon0.09_PT006H.grib2 2026-04-29 14:44 799K
20260429T12Z_MSC_RDPS_RelativeHumidity_IsbL-0500_RLatLon0.09_PT006H.grib2 2026-04-29 14:44 813K
20260429T12Z_MSC_RDPS_RelativeHumidity_IsbL-0550_RLatLon0.09_PT006H.grib2 2026-04-29 14:44 829K
20260429T12Z_MSC_RDPS_RelativeHumidity_IsbL-0600_RLatLon0.09_PT006H.grib2 2026-04-29 14:44 844K
20260429T12Z_MSC_RDPS_RelativeHumidity_IsbL-0650_RLatLon0.09_PT006H.grib2 2026-04-29 14:44 861K
20260429T12Z_MSC_RDPS_RelativeHumidity_IsbL-0700_RLatLon0.09_PT006H.grib2 2026-04-29 14:44 887K
20260429T12Z_MSC_RDPS_RelativeHumidity_IsbL-0750_RLatLon0.09_PT006H.grib2 2026-04-29 14:44 936K
20260429T12Z_MSC_RDPS_RelativeHumidity_IsbL-0800_RLatLon0.09_PT006H.grib2 2026-04-29 14:44 1.0M
20260429T12Z_MSC_RDPS_RelativeHumidity_IsbL-0850_RLatLon0.09_PT006H.grib2 2026-04-29 14:44 1.0M
20260429T12Z_MSC_RDPS_RelativeHumidity_IsbL-0875_RLatLon0.09_PT006H.grib2 2026-04-29 14:44 1.1M
20260429T12Z_MSC_RDPS_RelativeHumidity_IsbL-0900_RLatLon0.09_PT006H.grib2 2026-04-29 14:44 1.1M
20260429T12Z_MSC_RDPS_RelativeHumidity_IsbL-0925_RLatLon0.09_PT006H.grib2 2026-04-29 14:44 1.1M
20260429T12Z_MSC_RDPS_RelativeHumidity_IsbL-0950_RLatLon0.09_PT006H.grib2 2026-04-29 14:44 1.1M
20260429T12Z_MSC_RDPS_RelativeHumidity_IsbL-0970_RLatLon0.09_PT006H.grib2 2026-04-29 14:44 1.0M
20260429T12Z_MSC_RDPS_RelativeHumidity_IsbL-0985_RLatLon0.09_PT006H.grib2 2026-04-29 14:44 1.0M
20260429T12Z_MSC_RDPS_RelativeHumidity_IsbL-1000_RLatLon0.09_PT006H.grib2 2026-04-29 14:44 1.0M
20260429T12Z_MSC_RDPS_RelativeHumidity_IsbL-1015_RLatLon0.09_PT006H.grib2 2026-04-29 14:44 1.0M
20260429T12Z_MSC_RDPS_Runoff-Accum_Sfc_RLatLon0.09_PT006H.grib2 2026-04-29 14:44 28K
20260429T12Z_MSC_RDPS_SWEATIndex_Sfc_RLatLon0.09_PT006H.grib2 2026-04-29 14:44 2.4M
20260429T12Z_MSC_RDPS_SeeingIndex_EAtm_RLatLon0.09_PT006H.grib2 2026-04-29 14:44 1.0M
20260429T12Z_MSC_RDPS_SensibleHeatNetFlux_Sfc_RLatLon0.09_PT006H.grib2 2026-04-29 14:44 365K
20260429T12Z_MSC_RDPS_ShowalterIndex_IsbL-0500_RLatLon0.09_PT006H.grib2 2026-04-29 14:44 2.6M
20260429T12Z_MSC_RDPS_SkyTransparencyIndex_EAtm_RLatLon0.09_PT006H.grib2 2026-04-29 14:44 682K
20260429T12Z_MSC_RDPS_Snow-Accum1h_Sfc_RLatLon0.09_PT006H.grib2 2026-04-29 14:44 505K
20260429T12Z_MSC_RDPS_Snow-Accum3h_Sfc_RLatLon0.09_PT006H.grib2 2026-04-29 14:44 462K
20260429T12Z_MSC_RDPS_Snow-Accum6h_Sfc_RLatLon0.09_PT006H.grib2 2026-04-29 14:44 587K
20260429T12Z_MSC_RDPS_Snow-Accum_Sfc_RLatLon0.09_PT006H.grib2 2026-04-29 14:44 633K
20260429T12Z_MSC_RDPS_SnowDensity_Sfc_RLatLon0.09_PT006H.grib2 2026-04-29 14:44 170K
20260429T12Z_MSC_RDPS_SnowDepth_Sfc_RLatLon0.09_PT006H.grib2 2026-04-29 14:44 679K
20260429T12Z_MSC_RDPS_SoilTemp_DBS-0to10cm_RLatLon0.09_PT006H.grib2 2026-04-29 14:44 203K
20260429T12Z_MSC_RDPS_SoilTemp_Sfc_RLatLon0.09_PT006H.grib2 2026-04-29 14:44 296K
20260429T12Z_MSC_RDPS_SoilVolumetricIceContent_Sfc_RLatLon0.09_PT006H.grib2 2026-04-29 14:44 165K
20260429T12Z_MSC_RDPS_SoilVolumetricWaterContent_DBS-0to10cm_RLatLon0.09_PT006H.grib2 2026-04-29 14:44 265K
20260429T12Z_MSC_RDPS_SoilVolumetricWaterContent_DBS-0to1cm_RLatLon0.09_PT006H.grib2 2026-04-29 14:44 330K
20260429T12Z_MSC_RDPS_SpecificHumidity_AGL-120m_RLatLon0.09_PT006H.grib2 2026-04-29 14:44 493K
20260429T12Z_MSC_RDPS_SpecificHumidity_AGL-2m_RLatLon0.09_PT006H.grib2 2026-04-29 14:44 659K
20260429T12Z_MSC_RDPS_SpecificHumidity_AGL-40m_RLatLon0.09_PT006H.grib2 2026-04-29 14:44 496K
20260429T12Z_MSC_RDPS_SpecificHumidity_AGL-80m_RLatLon0.09_PT006H.grib2 2026-04-29 14:44 493K
20260429T12Z_MSC_RDPS_SpecificHumidity_IsbL-0001_RLatLon0.09_PT006H.grib2 2026-04-29 14:44 352K
20260429T12Z_MSC_RDPS_SpecificHumidity_IsbL-0005_RLatLon0.09_PT006H.grib2 2026-04-29 14:44 356K
20260429T12Z_MSC_RDPS_SpecificHumidity_IsbL-0010_RLatLon0.09_PT006H.grib2 2026-04-29 14:44 391K
20260429T12Z_MSC_RDPS_SpecificHumidity_IsbL-0020_RLatLon0.09_PT006H.grib2 2026-04-29 14:44 386K
20260429T12Z_MSC_RDPS_SpecificHumidity_IsbL-0030_RLatLon0.09_PT006H.grib2 2026-04-29 14:44 370K
20260429T12Z_MSC_RDPS_SpecificHumidity_IsbL-0050_RLatLon0.09_PT006H.grib2 2026-04-29 14:44 458K
20260429T12Z_MSC_RDPS_SpecificHumidity_IsbL-0100_RLatLon0.09_PT006H.grib2 2026-04-29 14:44 536K
20260429T12Z_MSC_RDPS_SpecificHumidity_IsbL-0150_RLatLon0.09_PT006H.grib2 2026-04-29 14:44 484K
20260429T12Z_MSC_RDPS_SpecificHumidity_IsbL-0175_RLatLon0.09_PT006H.grib2 2026-04-29 14:44 443K
20260429T12Z_MSC_RDPS_SpecificHumidity_IsbL-0200_RLatLon0.09_PT006H.grib2 2026-04-29 14:44 458K
20260429T12Z_MSC_RDPS_SpecificHumidity_IsbL-0225_RLatLon0.09_PT006H.grib2 2026-04-29 14:44 461K
20260429T12Z_MSC_RDPS_SpecificHumidity_IsbL-0250_RLatLon0.09_PT006H.grib2 2026-04-29 14:44 566K
20260429T12Z_MSC_RDPS_SpecificHumidity_IsbL-0275_RLatLon0.09_PT006H.grib2 2026-04-29 14:44 484K
20260429T12Z_MSC_RDPS_SpecificHumidity_IsbL-0300_RLatLon0.09_PT006H.grib2 2026-04-29 14:44 585K
20260429T12Z_MSC_RDPS_SpecificHumidity_IsbL-0350_RLatLon0.09_PT006H.grib2 2026-04-29 14:44 576K
20260429T12Z_MSC_RDPS_SpecificHumidity_IsbL-0400_RLatLon0.09_PT006H.grib2 2026-04-29 14:44 528K
20260429T12Z_MSC_RDPS_SpecificHumidity_IsbL-0450_RLatLon0.09_PT006H.grib2 2026-04-29 14:44 575K
20260429T12Z_MSC_RDPS_SpecificHumidity_IsbL-0500_RLatLon0.09_PT006H.grib2 2026-04-29 14:44 510K
20260429T12Z_MSC_RDPS_SpecificHumidity_IsbL-0550_RLatLon0.09_PT006H.grib2 2026-04-29 14:44 579K
20260429T12Z_MSC_RDPS_SpecificHumidity_IsbL-0600_RLatLon0.09_PT006H.grib2 2026-04-29 14:44 632K
20260429T12Z_MSC_RDPS_SpecificHumidity_IsbL-0650_RLatLon0.09_PT006H.grib2 2026-04-29 14:44 551K
20260429T12Z_MSC_RDPS_SpecificHumidity_IsbL-0700_RLatLon0.09_PT006H.grib2 2026-04-29 14:44 598K
20260429T12Z_MSC_RDPS_SpecificHumidity_IsbL-0750_RLatLon0.09_PT006H.grib2 2026-04-29 14:44 654K
20260429T12Z_MSC_RDPS_SpecificHumidity_IsbL-0800_RLatLon0.09_PT006H.grib2 2026-04-29 14:44 733K
20260429T12Z_MSC_RDPS_SpecificHumidity_IsbL-0850_RLatLon0.09_PT006H.grib2 2026-04-29 14:44 802K
20260429T12Z_MSC_RDPS_SpecificHumidity_IsbL-0875_RLatLon0.09_PT006H.grib2 2026-04-29 14:44 688K
20260429T12Z_MSC_RDPS_SpecificHumidity_IsbL-0900_RLatLon0.09_PT006H.grib2 2026-04-29 14:44 699K
20260429T12Z_MSC_RDPS_SpecificHumidity_IsbL-0925_RLatLon0.09_PT006H.grib2 2026-04-29 14:44 701K
20260429T12Z_MSC_RDPS_SpecificHumidity_IsbL-0950_RLatLon0.09_PT006H.grib2 2026-04-29 14:44 706K
20260429T12Z_MSC_RDPS_SpecificHumidity_IsbL-0970_RLatLon0.09_PT006H.grib2 2026-04-29 14:44 697K
20260429T12Z_MSC_RDPS_SpecificHumidity_IsbL-0985_RLatLon0.09_PT006H.grib2 2026-04-29 14:44 688K
20260429T12Z_MSC_RDPS_SpecificHumidity_IsbL-1000_RLatLon0.09_PT006H.grib2 2026-04-29 14:44 680K
20260429T12Z_MSC_RDPS_SpecificHumidity_IsbL-1015_RLatLon0.09_PT006H.grib2 2026-04-29 14:44 670K
20260429T12Z_MSC_RDPS_SpecificHumidity_Sfc_RLatLon0.09_PT006H.grib2 2026-04-29 14:44 338K
20260429T12Z_MSC_RDPS_StormRelativeHelicity_EtaL-10000_RLatLon0.09_PT006H.grib2 2026-04-29 14:44 1.1M
20260429T12Z_MSC_RDPS_StormSeverityIndex_EtaL-10000_RLatLon0.09_PT006H.grib2 2026-04-29 14:44 1.1M
20260429T12Z_MSC_RDPS_Thickness_IsbL-0850to0700_RLatLon0.09_PT006H.grib2 2026-04-29 14:44 182K
20260429T12Z_MSC_RDPS_Thickness_IsbL-1000to0500_RLatLon0.09_PT006H.grib2 2026-04-29 14:44 204K
20260429T12Z_MSC_RDPS_Thickness_IsbL-1000to0850_RLatLon0.09_PT006H.grib2 2026-04-29 14:44 191K
20260429T12Z_MSC_RDPS_TotalCloudCover_Sfc_RLatLon0.09_PT006H.grib2 2026-04-29 14:44 637K
20260429T12Z_MSC_RDPS_TotalTotalsIndex_Sfc_RLatLon0.09_PT006H.grib2 2026-04-29 14:44 2.4M
20260429T12Z_MSC_RDPS_UVIndex-ClearSky-Max24h_Sfc_RLatLon0.09_PT006H.grib2 2026-04-29 14:44 294K
20260429T12Z_MSC_RDPS_UVIndex-ClearSky_Sfc_RLatLon0.09_PT006H.grib2 2026-04-29 14:44 229K
20260429T12Z_MSC_RDPS_UVIndex-Max24h_Sfc_RLatLon0.09_PT006H.grib2 2026-04-29 14:44 648K
20260429T12Z_MSC_RDPS_UVIndex_Sfc_RLatLon0.09_PT006H.grib2 2026-04-29 14:44 519K
20260429T12Z_MSC_RDPS_UpwardLongwaveRadiationFlux_NTAtm_RLatLon0.09_PT006H.grib2 2026-04-29 14:44 503K
20260429T12Z_MSC_RDPS_UpwardShortwaveRadiationFlux_NTAtm_RLatLon0.09_PT006H.grib2 2026-04-29 14:44 547K
20260429T12Z_MSC_RDPS_VerticalVelocity_IsbL-0250_RLatLon0.09_PT006H.grib2 2026-04-29 14:44 441K
20260429T12Z_MSC_RDPS_VerticalVelocity_IsbL-0500_RLatLon0.09_PT006H.grib2 2026-04-29 14:44 546K
20260429T12Z_MSC_RDPS_VerticalVelocity_IsbL-0700_RLatLon0.09_PT006H.grib2 2026-04-29 14:44 599K
20260429T12Z_MSC_RDPS_VerticalVelocity_IsbL-0850_RLatLon0.09_PT006H.grib2 2026-04-29 14:44 701K
20260429T12Z_MSC_RDPS_VerticalWindShear_EtaL-6500_RLatLon0.09_PT006H.grib2 2026-04-29 14:44 1.2M
20260429T12Z_MSC_RDPS_WindChill_Sfc_RLatLon0.09_PT006H.grib2 2026-04-29 14:44 1.1M
20260429T12Z_MSC_RDPS_WindDir_AGL-10m_RLatLon0.09_PT006H.grib2 2026-04-29 14:44 961K
20260429T12Z_MSC_RDPS_WindDir_AGL-120m_RLatLon0.09_PT006H.grib2 2026-04-29 14:44 612K
20260429T12Z_MSC_RDPS_WindDir_AGL-40m_RLatLon0.09_PT006H.grib2 2026-04-29 14:44 632K
20260429T12Z_MSC_RDPS_WindDir_AGL-80m_RLatLon0.09_PT006H.grib2 2026-04-29 14:44 621K
20260429T12Z_MSC_RDPS_WindDir_IsbL-0001_RLatLon0.09_PT006H.grib2 2026-04-29 14:44 297K
20260429T12Z_MSC_RDPS_WindDir_IsbL-0005_RLatLon0.09_PT006H.grib2 2026-04-29 14:44 349K
20260429T12Z_MSC_RDPS_WindDir_IsbL-0010_RLatLon0.09_PT006H.grib2 2026-04-29 14:44 351K
20260429T12Z_MSC_RDPS_WindDir_IsbL-0020_RLatLon0.09_PT006H.grib2 2026-04-29 14:44 377K
20260429T12Z_MSC_RDPS_WindDir_IsbL-0030_RLatLon0.09_PT006H.grib2 2026-04-29 14:44 392K
20260429T12Z_MSC_RDPS_WindDir_IsbL-0050_RLatLon0.09_PT006H.grib2 2026-04-29 14:44 421K
20260429T12Z_MSC_RDPS_WindDir_IsbL-0100_RLatLon0.09_PT006H.grib2 2026-04-29 14:44 424K
20260429T12Z_MSC_RDPS_WindDir_IsbL-0150_RLatLon0.09_PT006H.grib2 2026-04-29 14:44 424K
20260429T12Z_MSC_RDPS_WindDir_IsbL-0175_RLatLon0.09_PT006H.grib2 2026-04-29 14:44 439K
20260429T12Z_MSC_RDPS_WindDir_IsbL-0200_RLatLon0.09_PT006H.grib2 2026-04-29 14:44 452K
20260429T12Z_MSC_RDPS_WindDir_IsbL-0225_RLatLon0.09_PT006H.grib2 2026-04-29 14:44 461K
20260429T12Z_MSC_RDPS_WindDir_IsbL-0250_RLatLon0.09_PT006H.grib2 2026-04-29 14:44 464K
20260429T12Z_MSC_RDPS_WindDir_IsbL-0275_RLatLon0.09_PT006H.grib2 2026-04-29 14:44 489K
20260429T12Z_MSC_RDPS_WindDir_IsbL-0300_RLatLon0.09_PT006H.grib2 2026-04-29 14:44 489K
20260429T12Z_MSC_RDPS_WindDir_IsbL-0350_RLatLon0.09_PT006H.grib2 2026-04-29 14:44 507K
20260429T12Z_MSC_RDPS_WindDir_IsbL-0400_RLatLon0.09_PT006H.grib2 2026-04-29 14:44 522K
20260429T12Z_MSC_RDPS_WindDir_IsbL-0450_RLatLon0.09_PT006H.grib2 2026-04-29 14:44 531K
20260429T12Z_MSC_RDPS_WindDir_IsbL-0500_RLatLon0.09_PT006H.grib2 2026-04-29 14:44 542K
20260429T12Z_MSC_RDPS_WindDir_IsbL-0550_RLatLon0.09_PT006H.grib2 2026-04-29 14:44 563K
20260429T12Z_MSC_RDPS_WindDir_IsbL-0600_RLatLon0.09_PT006H.grib2 2026-04-29 14:44 595K
20260429T12Z_MSC_RDPS_WindDir_IsbL-0650_RLatLon0.09_PT006H.grib2 2026-04-29 14:44 640K
20260429T12Z_MSC_RDPS_WindDir_IsbL-0700_RLatLon0.09_PT006H.grib2 2026-04-29 14:44 684K
20260429T12Z_MSC_RDPS_WindDir_IsbL-0750_RLatLon0.09_PT006H.grib2 2026-04-29 14:44 734K
20260429T12Z_MSC_RDPS_WindDir_IsbL-0800_RLatLon0.09_PT006H.grib2 2026-04-29 14:44 793K
20260429T12Z_MSC_RDPS_WindDir_IsbL-0850_RLatLon0.09_PT006H.grib2 2026-04-29 14:44 864K
20260429T12Z_MSC_RDPS_WindDir_IsbL-0875_RLatLon0.09_PT006H.grib2 2026-04-29 14:44 889K
20260429T12Z_MSC_RDPS_WindDir_IsbL-0900_RLatLon0.09_PT006H.grib2 2026-04-29 14:44 901K
20260429T12Z_MSC_RDPS_WindDir_IsbL-0925_RLatLon0.09_PT006H.grib2 2026-04-29 14:44 907K
20260429T12Z_MSC_RDPS_WindDir_IsbL-0950_RLatLon0.09_PT006H.grib2 2026-04-29 14:44 907K
20260429T12Z_MSC_RDPS_WindDir_IsbL-0970_RLatLon0.09_PT006H.grib2 2026-04-29 14:44 917K
20260429T12Z_MSC_RDPS_WindDir_IsbL-0985_RLatLon0.09_PT006H.grib2 2026-04-29 14:44 926K
20260429T12Z_MSC_RDPS_WindDir_IsbL-1000_RLatLon0.09_PT006H.grib2 2026-04-29 14:44 938K
20260429T12Z_MSC_RDPS_WindDir_IsbL-1015_RLatLon0.09_PT006H.grib2 2026-04-29 14:44 953K
20260429T12Z_MSC_RDPS_WindGust-Max_AGL-10m_RLatLon0.09_PT006H.grib2 2026-04-29 14:44 1.0M
20260429T12Z_MSC_RDPS_WindGust-Min_AGL-10m_RLatLon0.09_PT006H.grib2 2026-04-29 14:44 968K
20260429T12Z_MSC_RDPS_WindGust_AGL-10m_RLatLon0.09_PT006H.grib2 2026-04-29 14:44 1.0M
20260429T12Z_MSC_RDPS_WindSpeed_AGL-10m_RLatLon0.09_PT006H.grib2 2026-04-29 14:44 832K
20260429T12Z_MSC_RDPS_WindSpeed_AGL-120m_RLatLon0.09_PT006H.grib2 2026-04-29 14:44 543K
20260429T12Z_MSC_RDPS_WindSpeed_AGL-40m_RLatLon0.09_PT006H.grib2 2026-04-29 14:44 534K
20260429T12Z_MSC_RDPS_WindSpeed_AGL-80m_RLatLon0.09_PT006H.grib2 2026-04-29 14:44 531K
20260429T12Z_MSC_RDPS_WindSpeed_IsbL-0001_RLatLon0.09_PT006H.grib2 2026-04-29 14:44 332K
20260429T12Z_MSC_RDPS_WindSpeed_IsbL-0005_RLatLon0.09_PT006H.grib2 2026-04-29 14:44 286K
20260429T12Z_MSC_RDPS_WindSpeed_IsbL-0010_RLatLon0.09_PT006H.grib2 2026-04-29 14:44 294K
20260429T12Z_MSC_RDPS_WindSpeed_IsbL-0020_RLatLon0.09_PT006H.grib2 2026-04-29 14:44 310K
20260429T12Z_MSC_RDPS_WindSpeed_IsbL-0030_RLatLon0.09_PT006H.grib2 2026-04-29 14:44 310K
20260429T12Z_MSC_RDPS_WindSpeed_IsbL-0050_RLatLon0.09_PT006H.grib2 2026-04-29 14:44 339K
20260429T12Z_MSC_RDPS_WindSpeed_IsbL-0100_RLatLon0.09_PT006H.grib2 2026-04-29 14:44 477K
20260429T12Z_MSC_RDPS_WindSpeed_IsbL-0150_RLatLon0.09_PT006H.grib2 2026-04-29 14:44 386K
20260429T12Z_MSC_RDPS_WindSpeed_IsbL-0175_RLatLon0.09_PT006H.grib2 2026-04-29 14:44 436K
20260429T12Z_MSC_RDPS_WindSpeed_IsbL-0200_RLatLon0.09_PT006H.grib2 2026-04-29 14:44 454K
20260429T12Z_MSC_RDPS_WindSpeed_IsbL-0225_RLatLon0.09_PT006H.grib2 2026-04-29 14:44 460K
20260429T12Z_MSC_RDPS_WindSpeed_IsbL-0250_RLatLon0.09_PT006H.grib2 2026-04-29 14:44 465K
20260429T12Z_MSC_RDPS_WindSpeed_IsbL-0275_RLatLon0.09_PT006H.grib2 2026-04-29 14:44 483K
20260429T12Z_MSC_RDPS_WindSpeed_IsbL-0300_RLatLon0.09_PT006H.grib2 2026-04-29 14:44 481K
20260429T12Z_MSC_RDPS_WindSpeed_IsbL-0350_RLatLon0.09_PT006H.grib2 2026-04-29 14:44 492K
20260429T12Z_MSC_RDPS_WindSpeed_IsbL-0400_RLatLon0.09_PT006H.grib2 2026-04-29 14:44 471K
20260429T12Z_MSC_RDPS_WindSpeed_IsbL-0450_RLatLon0.09_PT006H.grib2 2026-04-29 14:44 468K
20260429T12Z_MSC_RDPS_WindSpeed_IsbL-0500_RLatLon0.09_PT006H.grib2 2026-04-29 14:44 587K
20260429T12Z_MSC_RDPS_WindSpeed_IsbL-0550_RLatLon0.09_PT006H.grib2 2026-04-29 14:44 587K
20260429T12Z_MSC_RDPS_WindSpeed_IsbL-0600_RLatLon0.09_PT006H.grib2 2026-04-29 14:44 597K
20260429T12Z_MSC_RDPS_WindSpeed_IsbL-0650_RLatLon0.09_PT006H.grib2 2026-04-29 14:44 617K
20260429T12Z_MSC_RDPS_WindSpeed_IsbL-0700_RLatLon0.09_PT006H.grib2 2026-04-29 14:44 684K
20260429T12Z_MSC_RDPS_WindSpeed_IsbL-0750_RLatLon0.09_PT006H.grib2 2026-04-29 14:44 716K
20260429T12Z_MSC_RDPS_WindSpeed_IsbL-0800_RLatLon0.09_PT006H.grib2 2026-04-29 14:44 760K
20260429T12Z_MSC_RDPS_WindSpeed_IsbL-0850_RLatLon0.09_PT006H.grib2 2026-04-29 14:44 814K
20260429T12Z_MSC_RDPS_WindSpeed_IsbL-0875_RLatLon0.09_PT006H.grib2 2026-04-29 14:44 832K
20260429T12Z_MSC_RDPS_WindSpeed_IsbL-0900_RLatLon0.09_PT006H.grib2 2026-04-29 14:44 843K
20260429T12Z_MSC_RDPS_WindSpeed_IsbL-0925_RLatLon0.09_PT006H.grib2 2026-04-29 14:44 851K
20260429T12Z_MSC_RDPS_WindSpeed_IsbL-0950_RLatLon0.09_PT006H.grib2 2026-04-29 14:44 846K
20260429T12Z_MSC_RDPS_WindSpeed_IsbL-0970_RLatLon0.09_PT006H.grib2 2026-04-29 14:44 849K
20260429T12Z_MSC_RDPS_WindSpeed_IsbL-0985_RLatLon0.09_PT006H.grib2 2026-04-29 14:44 847K
20260429T12Z_MSC_RDPS_WindSpeed_IsbL-1000_RLatLon0.09_PT006H.grib2 2026-04-29 14:44 842K
20260429T12Z_MSC_RDPS_WindSpeed_IsbL-1015_RLatLon0.09_PT006H.grib2 2026-04-29 14:44 833K
20260429T12Z_MSC_RDPS_WindU_AGL-10m_RLatLon0.09_PT006H.grib2 2026-04-29 14:44 430K
20260429T12Z_MSC_RDPS_WindU_AGL-120m_RLatLon0.09_PT006H.grib2 2026-04-29 14:44 414K
20260429T12Z_MSC_RDPS_WindU_AGL-40m_RLatLon0.09_PT006H.grib2 2026-04-29 14:44 531K
20260429T12Z_MSC_RDPS_WindU_AGL-80m_RLatLon0.09_PT006H.grib2 2026-04-29 14:44 530K
20260429T12Z_MSC_RDPS_WindU_IsbL-0001_RLatLon0.09_PT006H.grib2 2026-04-29 14:44 291K
20260429T12Z_MSC_RDPS_WindU_IsbL-0005_RLatLon0.09_PT006H.grib2 2026-04-29 14:44 279K
20260429T12Z_MSC_RDPS_WindU_IsbL-0010_RLatLon0.09_PT006H.grib2 2026-04-29 14:44 287K
20260429T12Z_MSC_RDPS_WindU_IsbL-0020_RLatLon0.09_PT006H.grib2 2026-04-29 14:44 341K
20260429T12Z_MSC_RDPS_WindU_IsbL-0030_RLatLon0.09_PT006H.grib2 2026-04-29 14:44 303K
20260429T12Z_MSC_RDPS_WindU_IsbL-0050_RLatLon0.09_PT006H.grib2 2026-04-29 14:44 368K
20260429T12Z_MSC_RDPS_WindU_IsbL-0100_RLatLon0.09_PT006H.grib2 2026-04-29 14:44 336K
20260429T12Z_MSC_RDPS_WindU_IsbL-0150_RLatLon0.09_PT006H.grib2 2026-04-29 14:44 400K
20260429T12Z_MSC_RDPS_WindU_IsbL-0175_RLatLon0.09_PT006H.grib2 2026-04-29 14:44 426K
20260429T12Z_MSC_RDPS_WindU_IsbL-0200_RLatLon0.09_PT006H.grib2 2026-04-29 14:44 444K
20260429T12Z_MSC_RDPS_WindU_IsbL-0225_RLatLon0.09_PT006H.grib2 2026-04-29 14:44 349K
20260429T12Z_MSC_RDPS_WindU_IsbL-0250_RLatLon0.09_PT006H.grib2 2026-04-29 14:44 353K
20260429T12Z_MSC_RDPS_WindU_IsbL-0275_RLatLon0.09_PT006H.grib2 2026-04-29 14:44 368K
20260429T12Z_MSC_RDPS_WindU_IsbL-0300_RLatLon0.09_PT006H.grib2 2026-04-29 14:44 469K
20260429T12Z_MSC_RDPS_WindU_IsbL-0350_RLatLon0.09_PT006H.grib2 2026-04-29 14:44 479K
20260429T12Z_MSC_RDPS_WindU_IsbL-0400_RLatLon0.09_PT006H.grib2 2026-04-29 14:44 475K
20260429T12Z_MSC_RDPS_WindU_IsbL-0450_RLatLon0.09_PT006H.grib2 2026-04-29 14:44 472K
20260429T12Z_MSC_RDPS_WindU_IsbL-0500_RLatLon0.09_PT006H.grib2 2026-04-29 14:44 472K
20260429T12Z_MSC_RDPS_WindU_IsbL-0550_RLatLon0.09_PT006H.grib2 2026-04-29 14:44 456K
20260429T12Z_MSC_RDPS_WindU_IsbL-0600_RLatLon0.09_PT006H.grib2 2026-04-29 14:44 465K
20260429T12Z_MSC_RDPS_WindU_IsbL-0650_RLatLon0.09_PT006H.grib2 2026-04-29 14:44 485K
20260429T12Z_MSC_RDPS_WindU_IsbL-0700_RLatLon0.09_PT006H.grib2 2026-04-29 14:44 508K
20260429T12Z_MSC_RDPS_WindU_IsbL-0750_RLatLon0.09_PT006H.grib2 2026-04-29 14:44 536K
20260429T12Z_MSC_RDPS_WindU_IsbL-0800_RLatLon0.09_PT006H.grib2 2026-04-29 14:44 575K
20260429T12Z_MSC_RDPS_WindU_IsbL-0850_RLatLon0.09_PT006H.grib2 2026-04-29 14:44 622K
20260429T12Z_MSC_RDPS_WindU_IsbL-0875_RLatLon0.09_PT006H.grib2 2026-04-29 14:44 637K
20260429T12Z_MSC_RDPS_WindU_IsbL-0900_RLatLon0.09_PT006H.grib2 2026-04-29 14:44 645K
20260429T12Z_MSC_RDPS_WindU_IsbL-0925_RLatLon0.09_PT006H.grib2 2026-04-29 14:44 649K
20260429T12Z_MSC_RDPS_WindU_IsbL-0950_RLatLon0.09_PT006H.grib2 2026-04-29 14:44 645K
20260429T12Z_MSC_RDPS_WindU_IsbL-0970_RLatLon0.09_PT006H.grib2 2026-04-29 14:44 646K
20260429T12Z_MSC_RDPS_WindU_IsbL-0985_RLatLon0.09_PT006H.grib2 2026-04-29 14:44 784K
20260429T12Z_MSC_RDPS_WindU_IsbL-1000_RLatLon0.09_PT006H.grib2 2026-04-29 14:44 780K
20260429T12Z_MSC_RDPS_WindU_IsbL-1015_RLatLon0.09_PT006H.grib2 2026-04-29 14:44 774K
20260429T12Z_MSC_RDPS_WindV_AGL-10m_RLatLon0.09_PT006H.grib2 2026-04-29 14:44 432K
20260429T12Z_MSC_RDPS_WindV_AGL-120m_RLatLon0.09_PT006H.grib2 2026-04-29 14:44 529K
20260429T12Z_MSC_RDPS_WindV_AGL-40m_RLatLon0.09_PT006H.grib2 2026-04-29 14:44 532K
20260429T12Z_MSC_RDPS_WindV_AGL-80m_RLatLon0.09_PT006H.grib2 2026-04-29 14:44 530K
20260429T12Z_MSC_RDPS_WindV_IsbL-0001_RLatLon0.09_PT006H.grib2 2026-04-29 14:44 242K
20260429T12Z_MSC_RDPS_WindV_IsbL-0005_RLatLon0.09_PT006H.grib2 2026-04-29 14:44 277K
20260429T12Z_MSC_RDPS_WindV_IsbL-0010_RLatLon0.09_PT006H.grib2 2026-04-29 14:44 288K
20260429T12Z_MSC_RDPS_WindV_IsbL-0020_RLatLon0.09_PT006H.grib2 2026-04-29 14:44 343K
20260429T12Z_MSC_RDPS_WindV_IsbL-0030_RLatLon0.09_PT006H.grib2 2026-04-29 14:44 304K
20260429T12Z_MSC_RDPS_WindV_IsbL-0050_RLatLon0.09_PT006H.grib2 2026-04-29 14:44 331K
20260429T12Z_MSC_RDPS_WindV_IsbL-0100_RLatLon0.09_PT006H.grib2 2026-04-29 14:44 330K
20260429T12Z_MSC_RDPS_WindV_IsbL-0150_RLatLon0.09_PT006H.grib2 2026-04-29 14:44 399K
20260429T12Z_MSC_RDPS_WindV_IsbL-0175_RLatLon0.09_PT006H.grib2 2026-04-29 14:44 425K
20260429T12Z_MSC_RDPS_WindV_IsbL-0200_RLatLon0.09_PT006H.grib2 2026-04-29 14:44 344K
20260429T12Z_MSC_RDPS_WindV_IsbL-0225_RLatLon0.09_PT006H.grib2 2026-04-29 14:44 348K
20260429T12Z_MSC_RDPS_WindV_IsbL-0250_RLatLon0.09_PT006H.grib2 2026-04-29 14:44 375K
20260429T12Z_MSC_RDPS_WindV_IsbL-0275_RLatLon0.09_PT006H.grib2 2026-04-29 14:44 388K
20260429T12Z_MSC_RDPS_WindV_IsbL-0300_RLatLon0.09_PT006H.grib2 2026-04-29 14:44 386K
20260429T12Z_MSC_RDPS_WindV_IsbL-0350_RLatLon0.09_PT006H.grib2 2026-04-29 14:44 371K
20260429T12Z_MSC_RDPS_WindV_IsbL-0400_RLatLon0.09_PT006H.grib2 2026-04-29 14:44 368K
20260429T12Z_MSC_RDPS_WindV_IsbL-0450_RLatLon0.09_PT006H.grib2 2026-04-29 14:44 367K
20260429T12Z_MSC_RDPS_WindV_IsbL-0500_RLatLon0.09_PT006H.grib2 2026-04-29 14:44 471K
20260429T12Z_MSC_RDPS_WindV_IsbL-0550_RLatLon0.09_PT006H.grib2 2026-04-29 14:44 472K
20260429T12Z_MSC_RDPS_WindV_IsbL-0600_RLatLon0.09_PT006H.grib2 2026-04-29 14:44 481K
20260429T12Z_MSC_RDPS_WindV_IsbL-0650_RLatLon0.09_PT006H.grib2 2026-04-29 14:44 499K
20260429T12Z_MSC_RDPS_WindV_IsbL-0700_RLatLon0.09_PT006H.grib2 2026-04-29 14:44 519K
20260429T12Z_MSC_RDPS_WindV_IsbL-0750_RLatLon0.09_PT006H.grib2 2026-04-29 14:44 546K
20260429T12Z_MSC_RDPS_WindV_IsbL-0800_RLatLon0.09_PT006H.grib2 2026-04-29 14:44 583K
20260429T12Z_MSC_RDPS_WindV_IsbL-0850_RLatLon0.09_PT006H.grib2 2026-04-29 14:44 619K
20260429T12Z_MSC_RDPS_WindV_IsbL-0875_RLatLon0.09_PT006H.grib2 2026-04-29 14:44 635K
20260429T12Z_MSC_RDPS_WindV_IsbL-0900_RLatLon0.09_PT006H.grib2 2026-04-29 14:44 643K
20260429T12Z_MSC_RDPS_WindV_IsbL-0925_RLatLon0.09_PT006H.grib2 2026-04-29 14:44 649K
20260429T12Z_MSC_RDPS_WindV_IsbL-0950_RLatLon0.09_PT006H.grib2 2026-04-29 14:44 785K
20260429T12Z_MSC_RDPS_WindV_IsbL-0970_RLatLon0.09_PT006H.grib2 2026-04-29 14:44 789K
20260429T12Z_MSC_RDPS_WindV_IsbL-0985_RLatLon0.09_PT006H.grib2 2026-04-29 14:44 786K
20260429T12Z_MSC_RDPS_WindV_IsbL-1000_RLatLon0.09_PT006H.grib2 2026-04-29 14:44 828K
20260429T12Z_MSC_RDPS_WindV_IsbL-1015_RLatLon0.09_PT006H.grib2 2026-04-29 14:44 822K